ELECTRON KICK STAGE R/B, 63306

Orbit data source: Space-Track

ELECTRON KICK STAGE R/B, 63306 is space debris in SSO originally from a launch on Tue, 18 Mar 2025 UTC launched from the Rocket Lab Launch Complex (RLLC). Debris objects in space refer to the collection of defunct objects orbiting the Earth. Examples of debris include non-operational satellites, rocket bodies, and fragments generated from explosions, collisions, or faulty payload assembly.

Loading next visibility...
Identifier
63306, 2025-056G
Orbit
SSO
Country
Flag of USUS
Related business
Manufacturer
Rocket Lab
Mission
Spacecraft
Bus & Motor
KICK STAGE, CURIE
Mass
~50 kg wet, ~50 kg dry
Launch date (UTC)
2025-03-18 (1 year ago)
Launch vehicle
Unknown
Launch site
Rocket Lab Launch Complex (RLLC)
Object type
Payload
Rocket body
Debris
Shape & HBR
Trunc Cone, 0.9 m
Radar Cross Section
0.760 m², Large (>1 m²)

Expand to show TLE details & history
Last TLE update: 12 hours ago

TLE from 12 hours ago
0 ELECTRON KICK STAGE R/B
1 63306U 25056G   26146.32611012  .00003141  00000-0  33707-3 0  9993
2 63306  98.0229 281.4554 0043122  57.4310 303.1060 14.88686521 64520
Epoch: 2026-05-26T07:49Z
TLE epoch observation values (Epoch: 2026-05-26T07:49:35.914Z)
Latitude
0.00004°
Longitude
-79.8454°
Altitude
588.716 km
Speed
7.575 km/s
True Right ascension
18h 45m 49s
True Declination
0° 00' 00"
Sunlit
Object was in full shadow at epoch
Visualization orbit readout
Latitude
Unknown
Longitude
Unknown
Altitude
Unknown
Speed
Unknown
Apparent Right ascension
Unknown
Apparent Declination
Unknown
Sunlit
N/A
Visualization observer readout
Local Sidereal Time
04:48:54
Azimuth
Unknown
Elevation
Unknown
Doppler factor
Unknown
Orbital elements
Apogee altitude
629.16 km
Perigee altitude
568.986 km
Semi-major axis
6,977.21 km
Eccentricity
0.00431
Inclination
98.0229°
RAAN
281.4554°
Arg. of periapsis
57.431°
True anomaly
302.69086°
Mean anomaly
303.106°
Eccentric anomaly
302.89855°
Mean motion
3.72409 °/min
Orbital period
96.67 mins
BSTAR
0.00033707
Loading maneuver chart data...
Computing Atmospheric mass density...
Loading historical data...
Loading historical data...
Loading historical data...
Loading historical data...
Loading historical data...
Loading historical data...
Loading historical data...

Documentation

Showing up to 5 results
|